FW7740 Weather Reports


Display with metric or nautical units.
time (UTC)temp
F
wind
direction
speed
MPH
gust
MPH
rain 1hr
in
rain 24hr
in
rain mn
in
humidity
%
barometer
mb
20260903213100 100 234 3.0 2.0 0.00 0.00 0.00 33 1013.8
20260903212555 100 293 2.0 2.0 0.00 0.00 0.00 33 1013.5
20260903212051 101 349 0.0 0.0 0.00 0.00 0.00 32 1013.8
20260903211551 101 290 1.0 1.0 0.00 0.00 0.00 32 1013.5
20260903211048 102 296 1.0 2.0 0.00 0.00 0.00 32 1013.8
20260903210543 101 292 0.0 0.0 0.00 0.00 0.00 31 1013.8
20260903210038 101 282 1.0 1.0 0.00 0.00 0.00 31 1013.8
20260903205531 101 320 2.0 3.0 0.00 0.00 0.00 32 1013.8
20260903205026 101 126 2.0 2.0 0.00 0.00 0.00 32 1013.8
20260903204522 101 284 0.0 0.0 0.00 0.00 0.00 32 1013.8
20260903204017 101 196 3.0 7.0 0.00 0.00 0.00 32 1014.2
20260903203513 102 291 2.0 3.0 0.00 0.00 0.00 32 1014.2
20260903203012 101 291 0.0 1.0 0.00 0.00 0.00 33 1014.2
20260903202509 101 158 5.0 6.0 0.00 0.00 0.00 32 1014.2
20260903202004 100 270 1.0 1.0 0.00 0.00 0.00 33 1014.6
20260903201458 100 155 4.0 3.0 0.00 0.00 0.00 33 1014.6
20260903200957 100 160 5.0 6.0 0.00 0.00 0.00 33 1014.2
20260903200453 101 254 2.0 2.0 0.00 0.00 0.00 33 1014.2
20260903195947 100 149 3.0 3.0 0.00 0.00 0.00 33 1014.6
20260903195443 100 335 2.0 2.0 0.00 0.00 0.00 33 1014.6
20260903194938 101 276 3.0 3.0 0.00 0.00 0.00 33 1014.6
20260903194433 101 265 4.0 5.0 0.00 0.00 0.00 33 1014.6
20260903193928 100 253 1.0 1.0 0.00 0.00 0.00 33 1014.6
20260903193425 100 53 1.0 1.0 0.00 0.00 0.00 33 1014.9
20260903192920 100 340 2.0 2.0 0.00 0.00 0.00 33 1014.9
20260903192416 100 102 4.0 5.0 0.00 0.00 0.00 33 1015.3
20260903191912 100 260 3.0 3.0 0.00 0.00 0.00 32 1015.3
20260903191408 100 97 2.0 2.0 0.00 0.00 0.00 34 1015.6
20260903190907 100 161 2.0 2.0 0.00 0.00 0.00 34 1015.3
20260903190401 99 132 3.0 5.0 0.00 0.00 0.00 35 1014.9
20260903185901 99 185 7.0 10.0 0.00 0.00 0.00 35 1015.3
20260903185356 99 176 2.0 2.0 0.00 0.00 0.00 34 1015.3
20260903184851 100 131 2.0 2.0 0.00 0.00 0.00 32 1015.6
20260903184349 98 285 0.0 0.0 0.00 0.00 0.00 35 1015.6
20260903183843 98 270 2.0 2.0 0.00 0.00 0.00 35 1015.6
20260903183338 98 255 5.0 6.0 0.00 0.00 0.00 34 1015.6
20260903182837 99 186 4.0 5.0 0.00 0.00 0.00 33 1015.6
20260903182336 99 159 4.0 7.0 0.00 0.00 0.00 33 1015.9
20260903181831 98 127 3.0 3.0 0.00 0.00 0.00 33 1015.9
20260903181326 98 159 2.0 2.0 0.00 0.00 0.00 34 1015.9
20260903180825 98 254 6.0 7.0 0.00 0.00 0.00 34 1015.9
20260903180320 98 130 4.0 6.0 0.00 0.00 0.00 35 1015.9
20260903175819 98 237 5.0 6.0 0.00 0.00 0.00 35 1016.3
20260903175319 99 165 4.0 5.0 0.00 0.00 0.00 36 1016.3
20260903174813 99 339 1.0 1.0 0.00 0.00 0.00 35 1016.3
20260903174309 98 195 4.0 5.0 0.00 0.00 0.00 36 1016.3
20260903173802 98 251 5.0 6.0 0.00 0.00 0.00 36 1016.3
20260903173259 97 256 4.0 5.0 0.00 0.00 0.00 36 1016.6
20260903172754 97 246 2.0 2.0 0.00 0.00 0.00 37 1016.6
20260903172248 97 237 2.0 3.0 0.00 0.00 0.00 37 1016.6
20260903171744 97 256 3.0 5.0 0.00 0.00 0.00 37 1016.6
20260903171240 97 310 3.0 5.0 0.00 0.00 0.00 37 1016.6
20260903170738 97 166 5.0 7.0 0.00 0.00 0.00 37 1017.0
20260903170234 97 339 1.0 1.0 0.00 0.00 0.00 36 1017.0
20260903165732 97 312 1.0 2.0 0.00 0.00 0.00 37 1017.0
20260903165227 97 36 1.0 1.0 0.00 0.00 0.00 36 1017.3
20260903164721 97 151 2.0 3.0 0.00 0.00 0.00 36 1017.3
20260903164218 96 269 3.0 6.0 0.00 0.00 0.00 39 1017.3
20260903163717 96 190 5.0 7.0 0.00 0.00 0.00 39 1017.3
20260903163213 96 166 4.0 5.0 0.00 0.00 0.00 39 1017.3
20260903162709 95 130 4.0 5.0 0.00 0.00 0.00 41 1017.3
20260903162205 96 112 0.0 0.0 0.00 0.00 0.00 39 1017.3
20260903161700 95 309 2.0 2.0 0.00 0.00 0.00 40 1017.3
20260903161156 95 172 3.0 3.0 0.00 0.00 0.00 40 1017.3
20260903160651 95 282 2.0 2.0 0.00 0.00 0.00 40 1017.0
20260903160145 95 150 4.0 5.0 0.00 0.00 0.00 41 1017.3
20260903155644 95 115 5.0 6.0 0.00 0.00 0.00 41 1017.0
20260903155139 94 197 6.0 7.0 0.00 0.00 0.00 42 1017.3
20260903154635 94 219 5.0 6.0 0.00 0.00 0.00 44 1017.3
20260903154131 94 199 5.0 6.0 0.00 0.00 0.00 44 1017.3
20260903153626 94 91 3.0 3.0 0.00 0.00 0.00 45 1017.3
20260903153122 94 288 2.0 2.0 0.00 0.00 0.00 46 1017.3
20260903152618 94 200 4.0 5.0 0.00 0.00 0.00 46 1017.3
20260903152114 93 190 1.0 2.0 0.00 0.00 0.00 47 1017.3
20260903151613 93 146 7.0 8.0 0.00 0.00 0.00 47 1017.3
20260903151109 93 203 2.0 3.0 0.00 0.00 0.00 48 1017.3
20260903150608 93 184 4.0 5.0 0.00 0.00 0.00 49 1017.0
20260903150104 91 266 0.0 1.0 0.00 0.00 0.00 53 1017.3
20260903145603 91 49 1.0 1.0 0.00 0.00 0.00 52 1017.0
20260903145058 91 214 3.0 2.0 0.00 0.00 0.00 54 1017.3
20260903144557 90 182 5.0 6.0 0.00 0.00 0.00 54 1017.0
20260903144053 90 183 2.0 2.0 0.00 0.00 0.00 55 1017.6
20260903143550 89 151 1.0 1.0 0.00 0.00 0.00 55 1017.3
20260903143045 89 201 5.0 6.0 0.00 0.00 0.00 56 1017.3
20260903142540 89 155 2.0 2.0 0.00 0.00 0.00 56 1017.3
20260903142037 89 97 2.0 2.0 0.00 0.00 0.00 56 1017.6
20260903141532 88 109 2.0 5.0 0.00 0.00 0.00 59 1017.6
20260903141027 88 185 4.0 6.0 0.00 0.00 0.00 59 1017.6
20260903140523 87 253 0.0 1.0 0.00 0.00 0.00 61 1017.3
20260903140018 87 220 2.0 2.0 0.00 0.00 0.00 62 1017.3
20260903135514 87 184 2.0 1.0 0.00 0.00 0.00 62 1017.3
20260903135013 86 231 1.0 2.0 0.00 0.00 0.00 63 1017.3
20260903134513 86 224 3.0 5.0 0.00 0.00 0.00 63 1017.6
20260903134009 85 326 0.0 0.0 0.00 0.00 0.00 65 1017.6
20260903133506 85 69 1.0 1.0 0.00 0.00 0.00 65 1017.3
20260903133002 84 201 1.0 2.0 0.00 0.00 0.00 67 1017.3
20260903132457 84 257 0.0 0.0 0.00 0.00 0.00 68 1017.6
20260903131951 82 283 0.0 0.0 0.00 0.00 0.00 70 1018.1
20260903131446 82 297 0.0 0.0 0.00 0.00 0.00 73 1017.6
20260903130945 81 329 0.0 0.0 0.00 0.00 0.00 73 1017.6
20260903130440 79 293 0.0 0.0 0.00 0.00 0.00 75 1017.6
20260903125939 79 294 0.0 0.0 0.00 0.00 0.00 76 1017.3
20260903125433 78 311 0.0 0.0 0.00 0.00 0.00 77 1017.6
20260903124933 76 311 0.0 0.0 0.00 0.00 0.00 80 1017.6
20260903124428 74 311 0.0 0.0 0.00 0.00 0.00 84 1017.3
20260903123927 72 311 0.0 0.0 0.00 0.00 0.00 87 1017.6
20260903123422 71 311 0.0 0.0 0.00 0.00 0.00 90 1017.6
20260903122921 71 311 0.0 0.0 0.00 0.00 0.00 91 1017.6
20260903122420 71 311 0.0 0.0 0.00 0.00 0.00 92 1017.3
20260903121919 71 311 0.0 0.0 0.00 0.00 0.00 92 1017.6
20260903121415 71 311 0.0 0.0 0.00 0.00 0.00 92 1017.3
20260903120912 71 311 0.0 0.0 0.00 0.00 0.00 92 1017.3
20260903120410 70 311 0.0 0.0 0.00 0.00 0.00 92 1017.3
20260903115909 70 311 0.0 0.0 0.00 0.00 0.00 93 1017.3
20260903115408 70 311 0.0 0.0 0.00 0.00 0.00 93 1017.3
20260903114903 70 311 0.0 0.0 0.00 0.00 0.00 93 1017.3
20260903114359 70 311 0.0 0.0 0.00 0.00 0.00 93 1017.3
20260903113854 70 311 0.0 0.0 0.00 0.00 0.00 93 1017.3
20260903113350 70 311 0.0 0.0 0.00 0.00 0.00 93 1017.0
20260903112846 70 312 0.0 0.0 0.00 0.00 0.00 93 1017.0
20260903112341 70 312 0.0 0.0 0.00 0.00 0.00 93 1017.3
20260903111840 70 312 0.0 0.0 0.00 0.00 0.00 93 1017.0
20260903111340 70 312 0.0 0.0 0.00 0.00 0.00 92 1017.3
20260903110837 70 312 0.0 0.0 0.00 0.00 0.00 92 1017.0
20260903110326 70 312 0.0 0.0 0.00 0.00 0.00 92 1017.3
20260903105821 70 312 0.0 0.0 0.00 0.00 0.00 92 1017.0
20260903105316 70 312 0.0 0.0 0.00 0.00 0.00 92 1017.0
20260903104815 70 312 0.0 0.0 0.00 0.00 0.00 93 1016.6
20260903104310 70 312 0.0 0.0 0.00 0.00 0.00 93 1017.0
20260903103807 70 312 0.0 0.0 0.00 0.00 0.00 93 1017.0
20260903103303 70 312 0.0 0.0 0.00 0.00 0.00 93 1017.0
20260903102758 70 312 0.0 0.0 0.00 0.00 0.00 92 1016.6
20260903102252 70 312 0.0 0.0 0.00 0.00 0.00 92 1017.0
20260903101750 70 312 0.0 0.0 0.00 0.00 0.00 92 1016.6
20260903101247 70 312 0.0 0.0 0.00 0.00 0.00 92 1017.0
20260903100741 70 313 0.0 0.0 0.00 0.00 0.00 91 1016.6
20260903100236 70 313 0.0 0.0 0.00 0.00 0.00 92 1017.0
20260903095733 70 313 0.0 0.0 0.00 0.00 0.00 92 1017.0
20260903095228 70 314 0.0 0.0 0.00 0.00 0.00 92 1017.0
20260903094723 70 314 0.0 0.0 0.00 0.00 0.00 91 1016.6
20260903094218 70 314 0.0 0.0 0.00 0.00 0.00 91 1016.6
20260903093714 70 315 0.0 0.0 0.00 0.00 0.00 91 1017.0
20260903093210 70 282 0.0 0.0 0.00 0.00 0.00 91 1017.0
20260903092708 70 282 0.0 0.0 0.00 0.00 0.00 91 1016.6
20260903092203 70 282 0.0 0.0 0.00 0.00 0.00 91 1016.6
20260903091702 70 282 0.0 0.0 0.00 0.00 0.00 91 1017.0
20260903091157 70 282 0.0 0.0 0.00 0.00 0.00 91 1017.0
20260903090652 70 282 0.0 0.0 0.00 0.00 0.00 91 1016.6
20260903090151 70 282 0.0 0.0 0.00 0.00 0.00 91 1016.6
20260903085650 70 282 0.0 0.0 0.00 0.00 0.00 91 1016.6
20260903085146 70 282 0.0 0.0 0.00 0.00 0.00 91 1016.3
20260903084643 70 282 0.0 0.0 0.00 0.00 0.00 91 1016.6
20260903084138 71 282 0.0 0.0 0.00 0.00 0.00 91 1016.6
20260903083633 71 282 0.0 0.0 0.00 0.00 0.00 90 1016.6
20260903083127 71 282 0.0 0.0 0.00 0.00 0.00 89 1016.6
20260903082622 71 282 0.0 0.0 0.00 0.00 0.00 89 1016.6
20260903082118 71 282 0.0 0.0 0.00 0.00 0.00 89 1016.3
20260903081612 71 282 0.0 0.0 0.00 0.00 0.00 89 1016.6
20260903081108 71 282 0.0 0.0 0.00 0.00 0.00 89 1016.3
20260903080605 71 282 0.0 0.0 0.00 0.00 0.00 89 1016.6
20260903075555 71 282 0.0 0.0 0.00 0.00 0.00 89 1016.6
20260903075051 71 282 0.0 0.0 0.00 0.00 0.00 89 1016.3
20260903074549 71 282 0.0 0.0 0.00 0.00 0.00 89 1016.3
20260903074044 71 282 0.0 0.0 0.00 0.00 0.00 89 1016.3
20260903073540 71 282 0.0 0.0 0.00 0.00 0.00 89 1016.3
20260903073036 71 282 0.0 0.0 0.00 0.00 0.00 89 1016.6
20260903072531 71 282 0.0 0.0 0.00 0.00 0.00 89 1016.6
20260903072028 71 282 0.0 0.0 0.00 0.00 0.00 89 1016.6
20260903071524 71 282 0.0 0.0 0.00 0.00 0.00 89 1016.6
20260903071019 71 282 0.0 0.0 0.00 0.00 0.00 88 1016.6
20260903070519 71 282 0.0 0.0 0.00 0.00 0.00 88 1016.6
20260903070014 71 282 0.0 0.0 0.00 0.00 0.00 88 1016.6
20260903065508 72 282 0.0 0.0 0.00 0.00 0.00 87 1016.3
20260903065007 72 282 0.0 0.0 0.00 0.00 0.00 87 1017.0
20260903064502 72 282 0.0 0.0 0.00 0.00 0.00 87 1017.0
20260903063958 72 282 0.0 0.0 0.00 0.00 0.00 86 1016.6
20260903063453 72 282 0.0 0.0 0.00 0.00 0.00 86 1016.6
20260903062949 72 282 0.0 0.0 0.00 0.00 0.00 85 1016.3
20260903062448 72 282 0.0 0.0 0.00 0.00 0.00 86 1016.6
20260903061943 72 282 0.0 0.0 0.00 0.00 0.00 86 1016.6
20260903061438 72 282 0.0 0.0 0.00 0.00 0.00 86 1016.6
20260903060934 72 282 0.0 0.0 0.00 0.00 0.00 86 1016.6
20260903060433 72 282 0.0 0.0 0.00 0.00 0.00 86 1016.3
20260903055932 72 282 0.0 0.0 0.00 0.00 0.00 85 1016.6
20260903055430 72 282 0.0 0.0 0.00 0.00 0.00 85 1016.3
20260903054925 73 282 0.0 0.0 0.00 0.00 0.00 85 1016.3
20260903054420 73 282 0.0 0.0 0.00 0.00 0.00 84 1016.3
20260903053916 73 282 0.0 0.0 0.00 0.00 0.00 84 1016.3
20260903053416 73 282 0.0 0.0 0.00 0.00 0.00 84 1016.3
20260903052912 73 282 0.0 0.0 0.00 0.00 0.00 83 1016.6
20260903052408 73 282 0.0 0.0 0.00 0.00 0.00 83 1016.3
20260903051903 73 282 0.0 0.0 0.00 0.00 0.00 83 1016.3
20260903051359 73 282 0.0 0.0 0.00 0.00 0.00 83 1016.3
20260903050854 73 282 0.0 0.0 0.00 0.00 0.00 83 1016.3
20260903050352 73 282 0.0 0.0 0.00 0.00 0.00 83 1016.3
20260903045853 73 282 0.0 0.0 0.00 0.00 0.00 83 1016.3
20260903045348 73 282 0.0 0.0 0.00 0.00 0.00 83 1016.6
20260903044845 73 282 0.0 0.0 0.00 0.00 0.00 83 1016.3
20260903044340 73 282 0.0 0.0 0.00 0.00 0.00 82 1016.3
20260903043836 74 282 0.0 0.0 0.00 0.00 0.00 82 1016.3
20260903043331 74 282 0.0 0.0 0.00 0.00 0.00 81 1016.3
20260903042830 74 282 0.0 0.0 0.00 0.00 0.00 81 1015.9
20260903042325 74 282 0.0 0.0 0.00 0.00 0.00 81 1016.3
20260903041822 74 282 0.0 0.0 0.00 0.00 0.00 81 1015.9
20260903041318 74 282 0.0 0.0 0.00 0.00 0.00 81 1016.3
20260903040813 74 282 0.0 0.0 0.00 0.00 0.00 80 1016.3
20260903040312 75 282 0.0 0.0 0.00 0.00 0.00 80 1016.3
20260903035808 75 282 0.0 0.0 0.00 0.00 0.00 80 1016.3
20260903035306 75 282 0.0 0.0 0.00 0.00 0.00 80 1016.3
20260903034759 75 282 0.0 0.0 0.00 0.00 0.00 79 1015.9
20260903034254 75 282 0.0 0.0 0.00 0.00 0.00 79 1016.3
20260903033749 75 282 0.0 0.0 0.00 0.00 0.00 78 1016.3
20260903033244 75 282 0.0 0.0 0.00 0.00 0.00 78 1016.3
20260903032738 76 282 0.0 0.0 0.00 0.00 0.00 78 1016.3
20260903032234 76 282 0.0 0.0 0.00 0.00 0.00 77 1016.3
20260903031729 76 282 0.0 0.0 0.00 0.00 0.00 77 1015.9
20260903031223 76 282 0.0 0.0 0.00 0.00 0.00 77 1015.9
20260903030719 76 282 0.0 0.0 0.00 0.00 0.00 77 1015.9
20260903030214 76 282 0.0 0.0 0.00 0.00 0.00 77 1015.9
20260903025704 77 282 0.0 0.0 0.00 0.00 0.00 76 1016.3
20260903025200 77 282 0.0 0.0 0.00 0.00 0.00 76 1015.9
20260903024654 77 282 0.0 0.0 0.00 0.00 0.00 75 1015.9
20260903024153 77 282 0.0 0.0 0.00 0.00 0.00 75 1015.9
20260903023644 77 282 0.0 0.0 0.00 0.00 0.00 75 1015.9
20260903023143 77 282 0.0 0.0 0.00 0.00 0.00 74 1015.9
20260903022638 78 282 0.0 0.0 0.00 0.00 0.00 74 1015.6
20260903022137 78 282 0.0 0.0 0.00 0.00 0.00 73 1015.6
20260903021632 78 282 0.0 0.0 0.00 0.00 0.00 73 1015.6
20260903021131 78 282 0.0 0.0 0.00 0.00 0.00 72 1015.6
20260903020627 78 282 0.0 0.0 0.00 0.00 0.00 72 1015.6
20260903020121 79 282 0.0 0.0 0.00 0.00 0.00 71 1015.6
20260903015617 79 282 0.0 0.0 0.00 0.00 0.00 71 1015.3
20260903015112 79 282 0.0 0.0 0.00 0.00 0.00 71 1015.6
20260903014613 80 282 0.0 0.0 0.00 0.00 0.00 69 1015.3
20260903014112 80 282 0.0 0.0 0.00 0.00 0.00 69 1015.3
20260903013607 80 282 0.0 0.0 0.00 0.00 0.00 68 1014.9
20260903013101 81 282 0.0 0.0 0.00 0.00 0.00 67 1014.9
20260903012601 81 282 0.0 0.0 0.00 0.00 0.00 66 1015.3
20260903012059 82 282 0.0 0.0 0.00 0.00 0.00 65 1015.3
20260903011554 82 282 0.0 0.0 0.00 0.00 0.00 64 1014.9
20260903011054 83 282 0.0 0.0 0.00 0.00 0.00 63 1014.9
20260903010550 83 282 0.0 0.0 0.00 0.00 0.00 63 1014.6
20260903010048 84 282 0.0 0.0 0.00 0.00 0.00 62 1014.9
20260903005543 84 282 0.0 0.0 0.00 0.00 0.00 61 1014.6
20260903005039 85 282 0.0 0.0 0.00 0.00 0.00 60 1014.6
20260903004538 85 282 0.0 0.0 0.00 0.00 0.00 57 1014.9
20260903004034 86 282 0.0 0.0 0.00 0.00 0.00 55 1014.6
20260903003529 87 282 0.0 0.0 0.00 0.00 0.00 54 1014.6
20260903003025 88 282 0.0 0.0 0.00 0.00 0.00 51 1014.9
20260903002519 89 282 0.0 0.0 0.00 0.00 0.00 50 1014.6
20260903002014 90 282 0.0 0.0 0.00 0.00 0.00 48 1014.6
20260903001508 90 282 0.0 0.0 0.00 0.00 0.00 47 1014.6
20260903001008 91 282 0.0 0.0 0.00 0.00 0.00 45 1014.6
20260903000503 91 282 0.0 0.0 0.00 0.00 0.00 44 1014.6
20260903000002 92 282 0.0 0.0 0.00 0.00 0.00 42 1014.9
20260902235456 93 283 0.0 0.0 0.00 0.00 0.00 41 1014.6
20260902234951 93 303 0.0 0.0 0.00 0.00 0.00 42 1014.6
20260902234446 94 313 0.0 0.0 0.00 0.00 0.00 40 1014.6
20260902233945 94 307 0.0 0.0 0.00 0.00 0.00 39 1014.9
20260902233438 94 292 0.0 0.0 0.00 0.00 0.00 39 1014.9
20260902232938 94 305 0.0 0.0 0.00 0.00 0.00 39 1014.6
20260902232433 94 318 0.0 0.0 0.00 0.00 0.00 38 1015.3
20260902231933 95 304 0.0 0.0 0.00 0.00 0.00 38 1014.6
20260902231427 95 328 1.0 1.0 0.00 0.00 0.00 38 1014.6
20260902230916 96 328 0.0 0.0 0.00 0.00 0.00 37 1014.9
20260902230416 96 289 0.0 1.0 0.00 0.00 0.00 36 1015.3
20260902225915 95 186 2.0 3.0 0.00 0.00 0.00 35 1014.6
20260902225405 96 304 0.0 0.0 0.00 0.00 0.00 37 1014.9
20260902224904 96 334 1.0 2.0 0.00 0.00 0.00 37 1014.9
20260902224403 96 305 0.0 0.0 0.00 0.00 0.00 36 1014.9
20260902223855 97 305 0.0 0.0 0.00 0.00 0.00 35 1014.6
20260902223355 97 326 0.0 1.0 0.00 0.00 0.00 35 1014.9
20260902222850 97 289 2.0 2.0 0.00 0.00 0.00 35 1014.9
20260902222348 97 321 1.0 1.0 0.00 0.00 0.00 35 1014.9
20260902221843 97 235 2.0 2.0 0.00 0.00 0.00 34 1014.9
20260902221342 97 269 2.0 3.0 0.00 0.00 0.00 34 1015.3
20260902220838 98 286 1.0 1.0 0.00 0.00 0.00 34 1014.9
20260902220337 98 319 0.0 0.0 0.00 0.00 0.00 34 1014.9
20260902215832 98 318 0.0 0.0 0.00 0.00 0.00 33 1014.9
20260902215327 98 286 1.0 1.0 0.00 0.00 0.00 33 1015.3
20260902214823 99 292 0.0 0.0 0.00 0.00 0.00 32 1015.3
20260902214321 99 290 1.0 1.0 0.00 0.00 0.00 33 1014.9
20260902213817 99 303 0.0 0.0 0.00 0.00 0.00 33 1014.9
20260902213312 99 235 1.0 1.0 0.00 0.00 0.00 32 1014.9